Location: Herm
(49.4830°N, 2.4500°W)
Time: 20:21:19
(UTC+00:00)

Envisat - Pass Details

Date: 12 October 2022
Orbit: 763 x 765 km, 98.2° (Epoch: 06 December)

Event Time Altitude Azimuth Distance (km) Brightness Sun altitude
Rises 06:00:24 0° 11° (NNE) 3,246 6.5 -14.7°
Reaches altitude 10° 06:02:43 10° 9° (N) 2,315 5.7 -14.3°
Maximum altitude 06:07:46 64° 289° (WNW) 848 3.0 -13.5°
Drops below altitude 10° 06:12:46 10° 208° (SSW) 2,298 5.2 -12.7°
Sets 06:15:05 0° 206° (SSW) 3,219 5.9 -12.3°
